Miscellaneous Local Product
Issued by NWS Hastings, NE

Home | Current Version | Previous Version | Text Only | Print | Product List | Glossary Off
Versions: 1 2 3 4 5 6 7 8 9 10 11 12 13 14 15 16 17 18 19 20 21 22 23 24 25 26 27 28 29 30 31 32 33 34 35 36 37 38 39 40 41 42 43 44 45 46 47 48 49 50

000
AXUS43 KGID 162002
MISGRI

GID CWA HOURLY WEATHER ROUNDUP
NATIONAL WEATHER SERVICE HASTINGS NE
300 PM CDT WED APR 16 2014

NOTE: "FAIR" INDICATES FEW OR NO CLOUDS BELOW 12,000 FEET WITH NO
SIGNIFICANT WEATHER AND/OR OBSTRUCTIONS TO VISIBILITY.

...SOUTH CENTRAL NEBRASKA...

CITY           SKY/WX    TMP DP  RH WIND       PRES   REMARKS
GRAND ISLAND   PTSUNNY   50  34  54 N28G41    29.82R
HASTINGS       PTSUNNY   53  35  50 N25G33    29.81R
KEARNEY        PTSUNNY   52  36  54 NW26G35   29.85R
ORD            LGT RAIN  42  32  67 NW22G33   29.86R
YORK           PTSUNNY   57  36  44 NW32G38   29.76R
AURORA         CLOUDY    55  36  49 NW28G33   29.78R
LEXINGTON      PTSUNNY   53  37  54 N28G37    29.87R
HOLDREGE       MOSUNNY   53  37  53 N22G30    29.84R
HEBRON         PTSUNNY   64  39  39 NW22G30   29.76R

...NEBRASKA PANHANDLE...

CITY           SKY/WX    TMP DP  RH WIND       PRES   REMARKS
CHADRON        CLOUDY    45  35  68 NE14G22   29.98R
ALLIANCE       CLOUDY    47  35  63 N20       29.94R
SCOTTSBLUFF    PTSUNNY   53  20  27 NW25G33   29.95R
SIDNEY         PTSUNNY   53  23  31 N28G38    29.93R

...WESTERN AND NORTH CENTRAL NEBRASKA...

CITY           SKY/WX    TMP DP  RH WIND       PRES   REMARKS
VALENTINE      CLOUDY    36  30  79 NW23      29.95R WCI  24
AINSWORTH      CLOUDY    36  31  83 N25G31    29.93R WCI  24
ONEILL         CLOUDY    38  28  67 NW32G40   29.87R WCI  25
BROKEN BOW     PTSUNNY   46  35  65 N26G35    29.87R
IMPERIAL       CLOUDY    51  33  50 N21       29.92R
NORTH PLATTE   PTSUNNY   53  35  50 N17G29    29.90R
MCCOOK         PTSUNNY   57  34  41 N28G38    29.88R

...EASTERN NEBRASKA...

CITY           SKY/WX    TMP DP  RH WIND       PRES   REMARKS
NORFOLK        CLOUDY    45  32  60 NW26G35   29.77R
SO SIOUX CITY  CLOUDY    60  29  30 W20G25    29.67S
TEKAMAH        PTSUNNY   68  26  20 SW26G38   29.66F
COLUMBUS       PTSUNNY   54  34  47 NW24G33   29.77R
ALBION         CLOUDY    40  31  69 NW29G36   29.81R WCI  29
OMAHA EPPLEY   MOSUNNY   67  25  20 SW25G39   29.69S
OFFUTT AFB     MOSUNNY   68  28  22 SW22G31   29.69R
MILLARD        MOSUNNY   65  27  24 SW13G25   29.70R
LINCOLN        SUNNY     69  30  23 W20G31    29.71R
NEBRASKA CITY  PTSUNNY   67  28  22 SW32G44   29.72F
BEATRICE       MOSUNNY   70  27  20 SW21G32   29.71S
FALLS CITY     NOT AVBL

...NORTHERN KANSAS...

CITY           SKY/WX    TMP DP  RH WIND       PRES   REMARKS
GOODLAND       SUNNY     59  27  29 N29G43    29.88R
HILL CITY      PTSUNNY   67  33  28 N23G36    29.84R
PHILLIPSBURG   PTSUNNY   64  34  32 NW23G35   29.82R
SMITH CENTER   PTSUNNY   61  37  41 NW20G29   29.81R
BELOIT         PTSUNNY   68  37  32 NW15G23   29.77R
HAYS           PTSUNNY   66  34  30 NW16G28   29.82R
RUSSELL        PTSUNNY   67  34  29 NW18      29.79R
CONCORDIA      MOSUNNY   69  35  28 NW18G28   29.75R
SALINA         CLOUDY    71  27  19 SW17G31   29.78F
TOPEKA         MOSUNNY   67  29  24 SW24G35   29.84S



USA.gov is the U.S. government's official web portal to all federal, state and local government web resources and services.